GW4057 Weather Reports


time (UTC)temp
F
wind
direction
speed
knots
gust
knots
rain 1hr
in
rain 24hr
in
rain mn
in
humidity
%
barometer
mb
20260506124204 46 306 2.6 5.2 0.01 1.22 0.31 99 1009.5
20260506123704 46 327 1.7 5.2 0.01 1.22 0.31 99 1009.5
20260506122704 45 318 0.9 2.6 0.01 1.22 0.31 99 1009.8
20260506122204 45 332 0.0 0.0 0.01 1.22 0.31 99 1009.5
20260506121704 45 296 0.0 2.6 0.01 1.22 0.31 99 1009.5
20260506121203 45 323 0.0 2.6 0.01 1.22 0.31 99 1009.5
20260506120704 45 6 0.0 2.6 0.01 1.22 0.31 99 1009.5
20260506120204 45 150 0.0 0.0 0.00 1.21 0.30 99 1009.5
20260506115704 45 321 0.0 0.0 0.00 1.21 0.30 99 1009.5
20260506115204 45 304 0.0 0.0 0.00 1.21 0.30 99 1009.5
20260506114704 45 323 0.0 0.0 0.00 1.21 0.30 99 1009.1
20260506114204 45 301 0.0 0.0 0.00 1.21 0.30 99 1009.1
20260506113704 45 287 0.0 0.0 0.00 1.21 0.30 99 1009.1
20260506112704 45 358 0.0 4.3 0.00 1.22 0.30 99 1009.1
20260506112204 45 323 0.0 4.3 0.00 1.22 0.30 99 1008.8
20260506111704 45 324 0.0 4.3 0.00 1.22 0.30 99 1008.8
20260506111204 44 59 0.9 2.6 0.00 1.22 0.30 99 1008.8
20260506110704 45 309 0.0 2.6 0.00 1.22 0.30 99 1008.5
20260506110203 45 354 0.0 2.6 0.00 1.22 0.30 99 1008.5
20260506105204 45 320 1.7 5.2 0.00 1.22 0.30 99 1008.8
20260506104704 45 296 2.6 5.2 0.00 1.22 0.30 99 1008.5
20260506104204 45 304 0.9 4.3 0.00 1.22 0.30 99 1008.5
20260506103704 45 308 1.7 4.3 0.01 1.22 0.30 99 1008.5
20260506102203 45 344 0.0 2.6 0.02 1.22 0.30 99 1007.5
20260506101204 45 82 0.9 4.3 0.04 1.22 0.30 99 1007.5
20260506100703 45 83 0.0 7.8 0.04 1.22 0.30 99 1007.8
20260506100205 45 341 0.0 7.8 0.04 1.22 0.30 99 1008.1
20260506095704 45 291 4.3 7.8 0.04 1.22 0.30 99 1008.1
20260506095204 46 314 2.6 5.2 0.04 1.22 0.30 99 1008.1
20260506094704 46 263 0.0 2.6 0.05 1.22 0.30 99 1008.5
20260506094204 46 318 0.9 2.6 0.05 1.22 0.30 99 1008.5
20260506093704 46 262 0.0 0.0 0.04 1.21 0.29 99 1008.5
20260506093204 46 2 0.0 0.0 0.04 1.21 0.29 99 1008.5
20260506092704 46 160 0.0 0.0 0.04 1.20 0.28 99 1008.5
20260506092205 45 118 0.0 0.0 0.05 1.20 0.28 99 1008.5
20260506091704 45 339 0.0 0.0 0.04 1.19 0.27 99 1008.1
20260506091203 45 124 0.0 0.0 0.04 1.18 0.26 99 1008.1
20260506090704 45 51 0.0 0.0 0.05 1.18 0.26 99 1008.1
20260506090204 45 62 0.0 0.0 0.05 1.18 0.26 99 1008.1
20260506085204 45 68 0.0 0.0 0.06 1.18 0.26 99 1007.8
20260506084704 45 137 0.0 0.0 0.05 1.17 0.25 99 1007.8
20260506083704 45 45 0.0 0.0 0.06 1.17 0.25 99 1008.1
20260506083204 45 91 0.0 0.0 0.06 1.17 0.25 99 1008.1
20260506082704 45 28 0.0 0.0 0.06 1.16 0.24 99 1008.4
20260506082203 45 20 0.0 0.0 0.05 1.15 0.23 99 1008.5
20260506081703 45 1 0.0 0.0 0.06 1.15 0.23 99 1008.5
20260506081204 45 104 0.0 0.0 0.05 1.14 0.22 99 1008.5
20260506080703 45 130 0.0 4.3 0.04 1.13 0.21 99 1008.5
20260506080204 45 52 0.0 6.1 0.04 1.13 0.21 99 1008.5
20260506073204 45 283 0.0 0.0 0.03 1.11 0.19 99 1007.8
20260506072705 45 13 0.0 0.0 0.02 1.10 0.18 99 1007.8
20260506072204 45 305 0.0 0.0 0.03 1.10 0.18 99 1007.8
20260506071203 45 283 0.0 0.0 0.03 1.09 0.17 99 1007.8
20260506070704 45 327 0.0 0.0 0.03 1.09 0.17 99 1008.1
20260506070204 45 352 0.0 2.6 0.04 1.09 0.17 99 1008.1
20260506062205 45 3 0.0 0.0 0.08 1.07 0.15 99 1008.1
20260506061704 45 43 0.0 0.0 0.08 1.07 0.15 99 1008.1
20260506061204 45 119 0.0 0.0 0.08 1.06 0.14 99 1008.1
20260506060704 45 77 0.0 2.6 0.08 1.06 0.14 99 1008.1
20260506050204 47 50 0.0 2.6 0.06 0.98 0.06 99 1008.8
20260506044704 47 115 0.0 0.0 0.07 0.97 0.05 99 1008.8
20260506044204 47 96 0.0 0.0 0.07 0.97 0.05 99 1008.8
20260506043703 46 49 0.0 2.6 0.08 0.97 0.05 99 1008.8
20260506042704 47 266 0.0 7.8 0.08 0.96 0.04 99 1008.8
20260506042204 47 343 1.7 7.8 0.07 0.95 0.03 99 1009.1
20260506041704 48 52 2.6 7.8 0.07 0.95 0.03 99 1009.1
20260506040204 48 49 0.0 0.0 0.07 0.92 0.00 99 1009.1
20260506035704 48 347 0.0 0.0 0.07 0.92 0.92 99 1009.1
20260506035204 48 330 0.0 0.0 0.07 0.91 0.91 99 1009.1
20260506034204 48 289 0.0 2.6 0.09 0.90 0.90 99 1009.5
20260506033704 49 293 1.7 2.6 0.09 0.89 0.89 99 1009.5
20260506033203 49 170 0.0 2.6 0.10 0.89 0.89 99 1009.5
20260506032705 49 331 0.0 0.0 0.12 0.89 0.89 99 1009.5
20260506032204 49 51 0.0 0.0 0.12 0.88 0.88 99 1009.5
20260506031204 49 100 0.0 0.0 0.13 0.87 0.87 99 1009.8
20260506030704 49 105 0.0 0.9 0.13 0.86 0.86 99 1009.5
20260506030204 49 237 0.0 2.6 0.13 0.85 0.85 99 1009.5
20260506025704 49 288 0.0 2.6 0.14 0.85 0.85 99 1009.1
20260506025204 49 76 0.9 2.6 0.15 0.84 0.84 99 1009.1
20260506024704 49 103 0.0 1.7 0.15 0.83 0.83 99 1009.1
20260506024204 49 222 0.0 1.7 0.14 0.81 0.81 99 1009.1
20260506023704 49 101 0.0 1.7 0.15 0.80 0.80 99 1009.1
20260506023204 49 86 1.7 2.6 0.16 0.79 0.79 99 1009.1
20260506022704 49 103 0.0 2.6 0.15 0.77 0.77 99 1008.8
20260506021704 49 39 1.7 2.6 0.15 0.75 0.75 99 1008.8
20260506021204 49 85 0.0 2.6 0.15 0.74 0.74 99 1008.5
20260506020704 49 31 1.7 2.6 0.14 0.73 0.73 99 1008.8
20260506020204 49 62 0.9 2.6 0.14 0.72 0.72 99 1009.1
20260506015704 49 74 0.0 2.6 0.16 0.71 0.71 99 1008.8
20260506015204 49 43 0.9 2.6 0.15 0.69 0.69 99 1009.1
20260506014704 49 69 0.0 1.7 0.14 0.68 0.68 99 1008.8
20260506014204 49 85 0.0 0.0 0.14 0.67 0.67 99 1008.8
20260506013704 49 100 0.0 0.0 0.12 0.65 0.65 99 1008.8
20260506013204 49 122 0.0 1.7 0.10 0.63 0.63 99 1008.8
20260506012704 49 77 0.0 2.6 0.09 0.62 0.62 99 1008.8
20260506012204 49 307 0.9 2.6 0.08 0.61 0.61 99 1008.8
20260506011704 49 177 1.7 2.6 0.07 0.60 0.60 99 1008.5
20260506011204 49 54 0.9 2.6 0.06 0.59 0.59 99 1008.8
20260506010704 49 15 0.0 0.0 0.06 0.59 0.59 99 1008.8
20260506010204 49 34 0.0 0.0 0.05 0.58 0.58 99 1008.8
20260506005704 49 80 0.0 0.0 0.02 0.55 0.55 99 1008.5
20260506005204 49 86 0.0 0.0 0.02 0.54 0.54 99 1008.5
20260506004704 49 118 0.0 0.0 0.03 0.54 0.54 99 1008.5
20260506004204 49 113 0.0 0.0 0.03 0.53 0.53 99 1008.5
20260506003704 49 83 0.0 0.0 0.04 0.53 0.53 99 1008.5
20260506003204 49 93 0.0 0.0 0.05 0.53 0.53 99 1008.5
20260506002704 49 85 0.0 0.0 0.06 0.53 0.53 99 1008.5
20260506001704 49 111 0.0 0.9 0.09 0.53 0.53 99 1008.5
20260506001204 49 95 0.0 1.7 0.10 0.53 0.53 99 1008.5
20260506000704 49 124 0.0 2.6 0.17 0.53 0.53 99 1008.5
20260506000205 49 141 0.9 2.6 0.19 0.53 0.53 99 1008.5
20260505235704 49 106 0.9 2.6 0.19 0.53 0.53 99 1008.5
20260505235203 49 113 0.9 2.6 0.19 0.52 0.52 99 1008.5
20260505234704 49 112 0.0 5.2 0.18 0.51 0.51 99 1008.8
20260505234204 49 262 0.9 5.2 0.17 0.50 0.50 99 1008.8
20260505233204 49 343 1.7 4.3 0.16 0.48 0.48 99 1008.5
20260505232204 49 342 1.7 6.1 0.16 0.46 0.46 99 1008.8
20260505231204 49 12 1.7 7.0 0.14 0.43 0.43 99 1009.1
20260505230704 49 315 4.3 7.0 0.07 0.36 0.36 99 1008.8
20260505230204 49 342 2.6 6.1 0.05 0.34 0.34 99 1008.5
20260505225705 50 357 2.6 6.1 0.06 0.34 0.34 99 1008.5
20260505225204 50 335 2.6 6.1 0.06 0.33 0.33 99 1008.5
20260505224703 50 296 2.6 6.1 0.07 0.33 0.33 99 1008.5
20260505223704 50 61 0.9 6.1 0.08 0.33 0.33 99 1008.5
20260505223204 51 25 2.6 6.1 0.07 0.32 0.32 99 1008.5
20260505222204 51 5 3.5 6.1 0.06 0.30 0.30 99 1008.5
20260505221704 51 1 1.7 6.1 0.14 0.30 0.30 99 1008.5
20260505221204 51 150 0.9 6.1 0.19 0.29 0.29 99 1008.5
20260505220704 51 75 0.9 5.2 0.22 0.29 0.29 99 1008.5
20260505220204 51 67 0.9 6.1 0.23 0.30 0.29 99 1008.8
20260505215704 51 109 2.6 6.1 0.22 0.29 0.28 99 1008.5
20260505215204 51 295 2.6 7.8 0.21 0.28 0.27 99 1008.5
20260505214704 52 21 2.6 7.8 0.21 0.27 0.26 99 1008.5
20260505214204 52 288 3.5 7.8 0.21 0.27 0.26 99 1008.5
20260505213204 54 273 2.6 10.4 0.21 0.26 0.25 99 1008.5
20260505212705 55 285 3.5 10.4 0.22 0.26 0.25 99 1008.1
20260505212204 56 290 6.1 10.4 0.21 0.25 0.24 98 1008.5
20260505211704 57 293 2.6 4.3 0.14 0.17 0.16 99 1008.1
20260505211204 57 197 0.0 1.7 0.08 0.11 0.10 99 1007.8
20260505210705 57 108 0.0 2.6 0.05 0.08 0.07 99 1007.8
20260505210204 57 311 0.0 2.6 0.04 0.07 0.06 99 1007.8
20260505205705 57 314 0.9 2.6 0.04 0.07 0.06 99 1007.8
20260505205204 57 315 0.0 2.6 0.04 0.07 0.06 99 1007.8
20260505204704 57 317 0.9 5.2 0.03 0.06 0.05 99 1007.8
20260505204205 57 313 0.0 5.2 0.03 0.06 0.05 98 1007.8
20260505203704 57 136 2.6 5.2 0.02 0.05 0.04 98 1008.1
20260505203204 57 313 2.6 5.2 0.02 0.05 0.04 97 1008.1
20260505202704 57 297 2.6 5.2 0.01 0.04 0.03 96 1008.1
20260505202204 57 315 2.6 7.8 0.01 0.04 0.03 96 1007.8
20260505201204 58 347 1.7 7.8 0.01 0.03 0.02 94 1007.8
20260505200704 58 7 2.6 6.1 0.01 0.03 0.02 94 1007.8
20260505195704 59 304 3.5 6.1 0.01 0.03 0.02 91 1007.9
20260505195204 60 328 2.6 7.0 0.01 0.03 0.02 90 1008.1
20260505194704 61 337 5.2 7.0 0.01 0.03 0.02 87 1008.1
20260505194204 61 312 5.2 7.0 0.01 0.03 0.02 86 1007.8
20260505193704 62 312 2.6 4.3 0.01 0.03 0.02 85 1007.8
20260505193204 63 141 0.9 2.6 0.01 0.03 0.02 84 1007.8
20260505192704 63 45 0.0 2.6 0.01 0.03 0.02 84 1008.1
20260505191204 63 298 1.7 7.0 0.00 0.02 0.01 81 1008.1
20260505190704 63 304 3.5 7.0 0.00 0.02 0.01 80 1008.1
20260505185704 64 248 4.3 8.7 0.00 0.02 0.01 77 1008.1
20260505185204 64 295 5.2 8.7 0.00 0.02 0.01 75 1008.1
20260505184704 65 229 4.3 8.7 0.00 0.02 0.01 74 1008.1
20260505184204 65 197 2.6 8.7 0.00 0.02 0.01 73 1008.1
20260505183704 65 236 5.2 8.7 0.00 0.02 0.01 73 1008.1
20260505183204 65 275 5.2 11.3 0.00 0.02 0.01 72 1008.1
20260505182704 65 262 4.3 11.3 0.00 0.02 0.01 72 1008.1
20260505182204 65 331 3.5 11.3 0.00 0.02 0.01 72 1008.1
20260505181204 65 219 2.6 11.3 0.00 0.02 0.01 72 1008.1
20260505180704 65 276 5.2 11.3 0.00 0.02 0.01 71 1008.1
20260505180204 65 297 7.0 11.3 0.00 0.02 0.01 70 1008.1
20260505175704 66 313 6.1 10.4 0.00 0.02 0.01 70 1007.8
20260505175204 66 324 7.8 10.4 0.00 0.02 0.01 70 1007.8
20260505174704 66 294 6.1 8.7 0.00 0.02 0.01 70 1007.8
20260505173704 66 288 4.3 10.4 0.00 0.02 0.01 69 1007.8
20260505173204 66 281 5.2 10.4 0.00 0.02 0.01 69 1007.8
20260505172704 66 281 7.8 10.4 0.00 0.02 0.01 69 1007.8
20260505172204 66 255 6.1 10.4 0.00 0.02 0.01 68 1007.8
20260505171704 66 276 6.1 11.3 0.00 0.02 0.01 68 1007.8
20260505171204 66 280 7.0 11.3 0.00 0.02 0.01 68 1007.8
20260505170705 66 311 8.7 11.3 0.00 0.02 0.01 67 1007.8
20260505170204 67 267 6.1 11.3 0.00 0.02 0.01 67 1007.8
20260505165204 67 273 5.2 14.8 0.00 0.02 0.01 67 1007.8
20260505164204 68 257 6.1 14.8 0.00 0.02 0.01 65 1007.5
20260505163704 68 182 8.7 12.2 0.00 0.02 0.01 65 1007.5
20260505163204 68 258 6.1 13.9 0.00 0.02 0.01 64 1007.5
20260505162704 68 263 6.1 13.9 0.00 0.02 0.01 64 1007.5
20260505161704 69 258 9.6 13.9 0.00 0.02 0.01 62 1007.5
20260505161204 70 243 8.7 13.9 0.00 0.02 0.01 62 1007.1
20260505160204 70 221 6.1 11.3 0.00 0.02 0.01 63 1007.1
20260505153204 68 270 9.6 13.0 0.00 0.02 0.01 63 1006.5
20260505152704 68 280 8.7 12.2 0.00 0.02 0.01 64 1006.8
20260505152204 69 201 7.0 11.3 0.00 0.02 0.01 64 1006.8
20260505151704 68 244 4.3 12.2 0.00 0.02 0.01 68 1006.8
20260505151204 67 251 7.8 14.8 0.00 0.02 0.01 66 1006.8
20260505150704 67 183 2.6 14.8 0.00 0.02 0.01 67 1006.8
20260505150204 66 231 11.3 14.8 0.00 0.02 0.01 66 1007.1
20260505140204 65 250 6.1 11.3 0.00 0.02 0.01 72 1006.7
20260505124704 62 274 3.5 10.4 0.00 0.02 0.01 78 1006.4